CSPL LEPA-LEPA

Flight info

Callsign CSPL
Flight time 0h 11m
Altitude 3000
Route VFR
Aircraft C130/M-SDE2E3FGRY/H

Departure

Time 2026-05-06 14:46
Airport Palma de Mallorca Airport (LEPA)

Arrival

Time 2026-05-06 14:57
Airport Palma de Mallorca Airport (LEPA)
Time Latitude Longitude Altitude Speed Heading
2026-05-06 14:36 39.54294 2.72731 33 ft 0 kts 150°
2026-05-06 14:40 39.54283 2.72741 33 ft 7 kts 147°
2026-05-06 14:40 39.54261 2.72770 33 ft 2 kts 75°
2026-05-06 14:40 39.54268 2.72785 33 ft 8 kts 60°
2026-05-06 14:40 39.54292 2.72900 33 ft 18 kts 59°
2026-05-06 14:41 39.54368 2.73062 33 ft 25 kts 58°
2026-05-06 14:41 39.54466 2.73267 33 ft 27 kts 58°
2026-05-06 14:41 39.54574 2.73494 33 ft 32 kts 59°
2026-05-06 14:41 39.54673 2.73702 33 ft 27 kts 59°
2026-05-06 14:42 39.54782 2.73933 33 ft 29 kts 57°
2026-05-06 14:42 39.54891 2.73967 33 ft 14 kts 327°
2026-05-06 14:42 39.54965 2.74016 33 ft 14 kts 359°
2026-05-06 14:42 39.55098 2.73915 33 ft 33 kts 328°
2026-05-06 14:43 39.55320 2.73741 33 ft 37 kts 327°
2026-05-06 14:43 39.55515 2.73591 33 ft 28 kts 328°
2026-05-06 14:43 39.55655 2.73514 33 ft 18 kts 33°
2026-05-06 14:43 39.55729 2.73666 33 ft 23 kts 61°
2026-05-06 14:44 39.55816 2.73847 33 ft 29 kts 58°
2026-05-06 14:44 39.55924 2.73877 33 ft 13 kts 323°
2026-05-06 14:44 39.55985 2.73833 33 ft 8 kts 319°
2026-05-06 14:45 39.55902 2.73576 33 ft 50 kts 238°
2026-05-06 14:45 39.55648 2.73041 33 ft 89 kts 239°
2026-05-06 14:45 39.55290 2.72283 98 ft 108 kts 239°
2026-05-06 14:45 39.54923 2.71413 270 ft 111 kts 244°
2026-05-06 14:46 39.54497 2.70610 573 ft 103 kts 232°
2026-05-06 14:46 39.53908 2.70400 738 ft 91 kts 152°
2026-05-06 14:46 39.53425 2.70865 736 ft 84 kts 137°
2026-05-06 14:46 39.53297 2.71465 605 ft 82 kts 60°
2026-05-06 14:47 39.53638 2.72097 437 ft 92 kts 62°
2026-05-06 14:47 39.53955 2.72844 264 ft 91 kts 60°
2026-05-06 14:47 39.54263 2.73464 102 ft 72 kts 61°
2026-05-06 14:47 39.54500 2.73953 33 ft 55 kts 60°
2026-05-06 14:48 39.54695 2.74359 33 ft 66 kts 58°
2026-05-06 14:48 39.54976 2.74927 137 ft 83 kts 58°
2026-05-06 14:48 39.55287 2.75566 380 ft 83 kts 58°
2026-05-06 14:48 39.55636 2.76123 678 ft 79 kts 42°
2026-05-06 14:49 39.56147 2.76526 829 ft 91 kts
2026-05-06 14:49 39.56536 2.75966 1146 ft 91 kts 287°
2026-05-06 14:49 39.56695 2.75178 1428 ft 90 kts 285°
2026-05-06 14:49 39.56835 2.74353 1648 ft 91 kts 276°
2026-05-06 14:50 39.56862 2.73567 1936 ft 85 kts 268°
2026-05-06 14:50 39.56820 2.72790 2143 ft 89 kts 257°
2026-05-06 14:50 39.56859 2.72036 2286 ft 92 kts 285°
2026-05-06 14:50 39.57160 2.71214 2360 ft 105 kts 295°
2026-05-06 14:51 39.57431 2.70371 2535 ft 105 kts 290°
2026-05-06 14:51 39.57666 2.69431 2503 ft 122 kts 282°
2026-05-06 14:51 39.57701 2.68310 2630 ft 107 kts 272°
2026-05-06 14:51 39.58105 2.67657 2843 ft 103 kts 326°
2026-05-06 14:52 39.58744 2.67058 2790 ft 119 kts 321°
2026-05-06 14:52 39.59426 2.66481 2623 ft 123 kts 348°
2026-05-06 14:52 39.60179 2.66313 2448 ft 106 kts 351°
2026-05-06 14:52 39.60876 2.66195 2360 ft 85 kts 352°
2026-05-06 14:53 39.61381 2.66111 2339 ft 58 kts 356°
2026-05-06 14:53 39.61313 2.65597 1530 ft 134 kts 221°
2026-05-06 14:53 39.61026 2.64700 1904 ft 103 kts 315°
2026-05-06 14:53 39.60887 2.65115 1289 ft 143 kts 159°
2026-05-06 14:54 39.59947 2.65566 580 ft 167 kts 159°
2026-05-06 14:54 39.58936 2.66061 450 ft 146 kts 155°
2026-05-06 14:54 39.58047 2.66567 518 ft 131 kts 145°
2026-05-06 14:54 39.57285 2.67145 637 ft 123 kts 145°
2026-05-06 14:55 39.56578 2.67710 825 ft 120 kts 142°
2026-05-06 14:55 39.55868 2.68373 738 ft 133 kts 139°
2026-05-06 14:55 39.55207 2.69128 864 ft 118 kts 134°
2026-05-06 14:55 39.54662 2.69756 854 ft 84 kts 133°
2026-05-06 14:56 39.54346 2.70255 810 ft 70 kts 115°
2026-05-06 14:56 39.54127 2.70812 680 ft 68 kts 115°
2026-05-06 14:56 39.53925 2.71312 577 ft 60 kts 110°
2026-05-06 14:56 39.53844 2.71830 476 ft 57 kts 72°
2026-05-06 14:57 39.53877 2.72391 356 ft 65 kts 84°
2026-05-06 14:57 39.53992 2.72924 209 ft 58 kts 58°
2026-05-06 14:57 39.54215 2.73345 92 ft 56 kts 58°
2026-05-06 14:57 39.54393 2.73725 33 ft 29 kts 59°
2026-05-06 14:58 39.54456 2.73749 33 ft 7 kts 327°
2026-05-06 14:58 39.54510 2.73709 33 ft 16 kts 330°
2026-05-06 14:58 39.54545 2.73612 33 ft 22 kts 236°
2026-05-06 14:58 39.54416 2.73341 33 ft 35 kts 238°
2026-05-06 14:59 39.54304 2.73103 33 ft 27 kts 239°
2026-05-06 14:59 39.54217 2.72919 33 ft 21 kts 242°
2026-05-06 14:59 39.54272 2.72817 33 ft 12 kts 307°
2026-05-06 14:59 39.54232 2.72756 33 ft 8 kts 186°
2026-05-06 15:00 39.54190 2.72750 33 ft 4 kts 186°
2026-05-06 15:00 39.54177 2.72748 33 ft 0 kts 189°